Home   Weather   Leirvik   Past weeks

Flag for Norway Past Weather in Leirvik, Norway — Yesterday and Last 2 Weeks

Now
41 °F

Drizzle. Fog.


Feels Like: 34 °F
Forecast: 42 / 43 °F
Wind: 13 mph from Southeast

Location: Stord / Soerstokken

Current Time: Jan 24, 2017 at 6:25:15 pm

Latest Report: Jan 24, 2017 at 5:50 pm


Visibility: 3 mi

Pressure: 30.15 "Hg

Humidity: 100%

Dew Point: 41 °F

Location of LeirvikLocation

Past Weather in Leirvik — Graph

°F

Leirvik Temperature Yesterday

Maximum temperature yesterday: 43 °F (at 1:20 pm)
Minimum temperature yesterday: 37 °F (at 7:20 am)
Average temperature yesterday: 40 °F

High & Low Weather Summary for the Past Weeks

 TemperatureHumidityPressure
High46 °F (Jan 19, 9:20 am)100% (Jan 10, 5:50 pm)30.45 "Hg (Jan 10, 5:50 pm)
Low25 °F (Jan 15, 7:20 pm)47% (Jan 16, 2:20 pm)28.53 "Hg (Jan 11, 9:20 am)
Average40 °F89%29.94 "Hg
* Reported Jan 9 5:20 pm — Jan 24 5:20 pm, Leirvik, Weather by CustomWeather, © 2017

Note: Actual official high and low records may vary slightly from our data, if they occured in-between our weather recording intervals... More about our weather records

Advertising

Leirvik Weather History for the Previous 24 Hours

Scroll right to see more
 ConditionsComfort  
Time TempWeatherWind HumidityBarometerVisibility
5:20 pm
Tue, Jan 24
41 °FDrizzle. Fog.13 mph100%30.15 "Hg2 mi
3:50 pm41 °FLight rain. Broken clouds.12 mph93%30.15 "Hg6 mi
2:50 pm41 °FBroken clouds.16 mph93%30.15 "HgN/A
2:20 pm41 °FBroken clouds.17 mph87%30.15 "HgN/A
1:50 pm41 °FBroken clouds.15 mph87%30.15 "HgN/A
12:50 pm41 °FBroken clouds.14 mph87%30.15 "HgN/A
12:20 pm41 °FBroken clouds.12 mph87%30.15 "HgN/A
11:50 am41 °FBroken clouds.13 mph87%30.15 "HgN/A
11:20 am41 °FPartly sunny.14 mph87%30.15 "HgN/A
10:50 am39 °FPartly sunny.12 mph93%30.15 "HgN/A
10:20 am41 °FPartly sunny.13 mph87%30.12 "HgN/A
9:50 am39 °FBroken clouds.N/A93%30.15 "HgN/A
9:20 am39 °FBroken clouds.9 mph87%30.15 "HgN/A
8:50 am39 °FPartly cloudy.9 mph87%30.15 "HgN/A
8:20 am39 °FPassing clouds.9 mph87%30.15 "HgN/A
7:50 am39 °FPassing clouds.12 mph87%30.12 "HgN/A
7:20 am39 °FPartly cloudy.13 mph87%30.12 "HgN/A
6:50 am39 °FPartly cloudy.13 mph87%30.12 "HgN/A
6:20 am39 °FPassing clouds.15 mph87%30.12 "HgN/A
5:50 am39 °FPartly cloudy.12 mph93%30.12 "HgN/A
7:20 pm
Mon, Jan 23
39 °FLight rain. Passing clouds.1 mph100%30.12 "HgN/A
6:50 pm39 °FRain. Fog.1 mph93%30.12 "HgN/A
6:20 pm39 °FPartly cloudy.3 mph93%30.12 "HgN/A
Weather by CustomWeather, © 2017

See weather overviewHow to use our weather pages